Location: Isola Pescaroli
(45.0500°N, 10.1667°E)
Time: 00:54:09
(UTC+00:00)

Cosmos 1354 Rocket - Pass Details

Date: 03 March 2021
Orbit: 765 x 782 km, 74.0° (Epoch: 18 April)

Event Time Altitude Azimuth Distance (km) Brightness Sun altitude
Rises 18:19:28 0° 340° (NNW) 3,250 7.6 -13.1°
Reaches altitude 10° 18:21:52 10° 343° (NNW) 2,317 6.8 -13.6°
Maximum altitude 18:27:07 72° 67° (ENE) 810 3.9 -14.5°
Drops below altitude 10° 18:32:19 10° 152° (SSE) 2,296 6.1 -15.4°
Enters shadow 18:33:31 - 154° (SSE) 2,764 6.6 -15.6°
